Location: Mt. Graham
(32.7020°N, 109.8880°W)
Time: 15:12:59
(UTC-07:00)

OTV 5 (USA 277) - Visible Passes

Search period start: 17 June 2018 00:00
Search period end: 27 June 2018 00:00
Orbit: 313 x 320 km, 54.5° (Epoch: 16 June)

Date Brightness Start Highest point End Pass type
(mag) Time Alt. Az. Time Alt. Az. Time Alt. Az.
18 Jun ? 03:35:46 10° NNW 03:38:05 25° NE 03:40:22 10° ESE visible
19 Jun ? 03:49:52 10° NW 03:52:33 87° WSW 03:55:15 10° SE visible
19 Jun ? 20:07:34 10° WNW 20:09:11 15° NW 20:10:50 10° N visible
20 Jun ? 02:30:56 10° N 02:31:56 14° NNE 02:31:56 14° NNE visible
